Location: Aulagny
(45.1643°N, 4.3096°E)
Time: 07:29:59
(UTC+00:00)

MOS 1 - Pass Details

Date: 21 October 2019
Orbit: 879 x 891 km, 99.2° (Epoch: 18 November)

Event Time Altitude Azimuth Distance (km) Brightness Sun altitude
Exits shadow 19:20:45 39° 184° (S) 1,304 5.0 -27.5°
Maximum altitude 19:22:55 71° 257° (WSW) 934 4.4 -27.9°
Drops below altitude 10° 19:28:34 10° 341° (NNW) 2,546 7.1 -28.8°
Sets 19:30:59 0° 344° (NNW) 3,488 7.8 -29.2°
